Regional Weather Roundup
Issued by NWS

Home | Current Version | Previous Version | Text Only | Print | Product List | Glossary Off
Versions: 1 2 3 4 5 6 7 8 9 10 11 12 13 14 15 16 17 18 19 20 21 22 23 24 25 26 27 28 29 30 31 32 33 34 35 36 37 38 39 40 41 42 43 44 45 46 47 48 49 50

000
ASUS43 KOAX 301602
RWRNE

WEATHER ROUNDUP FOR NEBRASKA
NATIONAL WEATHER SERVICE OMAHA NE
1100 AM CDT TUE SEP 30 2014

NOTES: SATELLITE DATA IS BEING USED TO AUGMENT CLOUD COVER ABOVE
       12000 FEET.
       "FAIR" INDICATES FEW OR NO CLOUDS BELOW 12,000 FEET WITH NO
       SIGNIFICANT WEATHER AND/OR OBSTRUCTIONS TO VISIBILITY.

  * THESE STATIONS DO NOT REPORT WEATHER SUCH AS RAIN...SNOW OR FOG.

NEZ001>004-019>022-054>056-301700-
NEBRASKA PANHANDLE

CITY           SKY/WX    TMP DP  RH WIND       PRES   REMARKS
SCOTTSBLUFF    CLOUDY    58  45  62 W12G22    29.73R
ALLIANCE       CLOUDY    54  49  83 W17       29.71R
CHADRON        CLOUDY    56  50  80 W28G38    29.58R
KIMBALL        MOSUNNY   62  38  42 W24G33    29.80R
SIDNEY         PTSUNNY   63  43  48 W26G37    29.81R
$$

NEZ057>060-069>072-079>082-301700-
SOUTHWEST NEBRASKA

CITY           SKY/WX    TMP DP  RH WIND       PRES   REMARKS
NORTH PLATTE   SUNNY     65  49  56 SW15G22   29.76F
IMPERIAL       SUNNY     64  48  56 SW13      29.81R
LEXINGTON      SUNNY     66  56  72 S13       29.79F
MCCOOK         SUNNY     65  50  58 SW8       29.82S
OGALLALA       PTSUNNY   65  49  54 SW17      29.77S
$$

NEZ005>010-023>029-035>040-094-301700-
NORTH CENTRAL NEBRASKA

CITY           SKY/WX    TMP DP  RH WIND       PRES   REMARKS
VALENTINE      PTSUNNY   65  47  52 SW28G37   29.60S
BROKEN BOW     SUNNY     68  51  54 S10       29.76F
O`NEILL        MOSUNNY   70  56  61 S17       29.73F
ORD            SUNNY     67  50  54 S14       29.75F
THEDFORD       MOSUNNY   68  47  47 SW24G31   29.70R
$$

NEZ041-046>049-061>064-073>077-083>087-301700-
SOUTH CENTRAL NEBRASKA

CITY           SKY/WX    TMP DP  RH WIND       PRES   REMARKS
GRAND ISLAND   MOSUNNY   71  60  68 S12       29.80F
AURORA         PTSUNNY   67  61  81 S10G16    29.82S
HASTINGS       PTSUNNY   68  58  70 S12G18    29.81F
HEBRON         LGT RAIN  63  60  91 S5        29.84F
HOLDREGE       MOSUNNY   68  48  48 S9        29.80F
KEARNEY *      MOSUNNY   70  46  43 SE9       29.80F
YORK           CLOUDY    64  63  94 S8        29.84R
$$

NEZ011>018-030>034-042>045-301700-
NORTHEAST NEBRASKA

CITY           SKY/WX    TMP DP  RH WIND       PRES   REMARKS
NORFOLK        CLOUDY    67  61  81 S20G28    29.80R
ALBION         MOSUNNY   70  57  63 S17       29.79S
BLAIR          CLOUDY    68  59  73 SE7       29.88S
COLUMBUS *     CLOUDY    64  61  88 S15       29.84S
FREMONT        LGT RAIN  67  60  76 S7        29.87R
TEKAMAH        CLOUDY    66  59  78 SE12      29.87R
WAYNE          CLOUDY    63  61  93 S15G22    29.82S
$$

NEZ050>053-065>068-078-088>093-301700-
SOUTHEAST NEBRASKA

CITY           SKY/WX    TMP DP  RH WIND       PRES   REMARKS
LINCOLN        RAIN      65  62  90 S8        29.88R FOG
OMAHA EPPLEY   CLOUDY    69  59  70 S7        29.88R
BEATRICE       CLOUDY    68  60  75 S7        29.87F
FALLS CITY     SUNNY     78  60  53 S15G21    29.88S
NEBRASKA CITY  CLOUDY    75  56  50 SW13      29.88S
PLATTSMOUTH      N/A     70  60  70 S5        29.89R
$$

NEZ044-045-051>053-067-301700-
OMAHA AREA

CITY           SKY/WX    TMP DP  RH WIND       PRES   REMARKS
OMAHA EPPLEY   CLOUDY    69  59  70 S7        29.88R
BLAIR          CLOUDY    68  59  73 SE7       29.88S
FREMONT        LGT RAIN  67  60  76 S7        29.87R
MILLARD        CLOUDY    67  60  78 CALM      29.88R
OFFUTT AFB     PTSUNNY   70  65  85 SE5       29.88R
PLATTSMOUTH      N/A     70  60  70 S5        29.89R
WAHOO          RAIN      66  60  81 S12       29.87R
$$


USA.gov is the U.S. government's official web portal to all federal, state and local government web resources and services.